User: anonymous   Login
Location: Gu�tanj
(46.5431°N, 14.9692°E)
Time: 03:44:10
(UTC+00:00)
Language:

Cosmos 2218 Rocket - Orbit

View from above orbital plane
View from above orbital plane
View from above satellite
View from above satellite

Ground track
Ground track

The orbit data is extracted from the following two-line orbital elements,

1 22208U 92073B   21213.71014516  .00000014  00000-0 -12292-5 0  9996
2 22208  82.9203 342.7037 0034936 154.3385 338.7376 13.75163745443101
Epoch (UTC): 01 August 2021 17:02:36
Eccentricity: 0.0034936
inclination: 82.9203°
perigee height: 955 km
apogee height: 1007 km
right ascension of ascending node: 342.7037°
argument of perigee: 154.3385°
revolutions per day: 13.75163745
mean anomaly at epoch: 338.7376°
orbit number at epoch: 44310

The dashed part of the orbit path shows where the satellite is in the earth's shadow,  

DLR